{"data":{"norad_id":52294,"epoch":"2026-09-19T08:52:20.404704Z","epoch_age_seconds":157181,"freshness":"FRESH","line1":"1 52294U 22041AK  26262.36968061 -.00001716  00000+0 -40872-4 0  9999","line2":"2 52294  53.1603 297.1262 0001236  85.7124 274.4020 15.33535480243915","mean_motion":15.3353548,"eccentricity":0.0001236,"inclination_deg":53.1603,"raan_deg":297.1262,"arg_perigee_deg":85.7124,"mean_anomaly_deg":274.402,"bstar":-4.0872e-5,"rev_number":24391,"period_min":93.900664104622,"perigee_km":464.42813729494,"apogee_km":466.11982848991,"semimajor_km":6843.4109828924,"source":"CELESTRAK","updated_at":"2026-09-20T09:00:40.016944Z"}}